This is the latest recevied weather packets stored in our database for station/object DF9PV-5. If no packets are shown the sender has not sent any weather packets the latest 10 day(s).
| Time | Temp. | Humidity | Pressure | Rain* | Wind** | Luminosity | Snow |
|---|---|---|---|---|---|---|---|
| 1777763726 | 13.33° C | 85% | 1014.6 hPa | 0 mm | - | - | - |
| 1777761324 | 13.89° C | 85% | 1014.7 hPa | 0 mm | - | - | - |
| 1777759820 | 14.44° C | 86% | 1014.6 hPa | 0 mm | - | - | - |
| 1777758028 | 15° C | 84% | 1014.7 hPa | 0 mm | - | - | - |
| 1777756567 | 15.56° C | 82% | 1014.7 hPa | 0 mm | - | - | - |
| 1777754127 | 16.67° C | 78% | 1014.8 hPa | 0 mm | - | - | - |
| 1777753228 | 16.67° C | 79% | 1014.8 hPa | 0 mm | - | - | - |
| 1777749663 | 18.89° C | 72% | 1014.6 hPa | 0 mm | - | - | - |
| 1777747535 | 20.56° C | 62% | 1014.4 hPa | 0 mm | - | - | - |
| 1777746620 | 20.56° C | 63% | 1014.4 hPa | 0 mm | - | - | - |
| 1777743023 | 25° C | 43% | 1014.3 hPa | 0 mm | - | - | - |
| 1777742732 | 25° C | 43% | 1014.3 hPa | 0 mm | - | - | - |
| 1777740325 | 25.56° C | 41% | 1014.5 hPa | 0 mm | - | - | - |
| 1777739443 | 26.11° C | 41% | 1014.7 hPa | 0 mm | - | - | - |
| 1777737020 | 26.67° C | 40% | 1015.1 hPa | 0 mm | - | - | - |
| 1777734643 | 27.22° C | 37% | 1015.6 hPa | 0 mm | - | - | - |
| 1777734332 | 27.22° C | 36% | 1015.7 hPa | 0 mm | - | - | - |
| 1777733171 | 27.22° C | 35% | 1015.9 hPa | 0 mm | - | - | - |
| 1777732828 | 27.22° C | 35% | 1016 hPa | 0 mm | - | - | - |
| 1777728336 | 27.22° C | 35% | 1017 hPa | 0 mm | - | - | - |
| 1777728028 | 27.22° C | 34% | 1017 hPa | 0 mm | - | - | - |
| 1777727421 | 27.78° C | 34% | 1017.2 hPa | 0 mm | - | - | - |
| 1777726828 | 27.78° C | 34% | 1017.3 hPa | 0 mm | - | - | - |
| 1777726237 | 27.78° C | 35% | 1017.4 hPa | 0 mm | - | - | - |
| 1777725921 | 27.78° C | 35% | 1017.5 hPa | 0 mm | - | - | - |
* Rain latest hour (hover to see other rain measurements)
** Current wind speed in m/s (hover to see current wind gust speed)